XPOSAT (58694 NORAD) Tracking and Keplerian Element Data

This shows tracking and keplerian element data for the satellite.

Feedback or suggestion? Click here.




ElementValue
Catalog58694
NameXPOSAT
Epoch Orbit6
Epoch Day1.68468223
Epoch Year2024
RAAN115.4463
Inclination5.987
Eccentricity0.0010488
Argument of Perigee359.8378
Mean Anonmoly55.428
Mean Motion14.74838619
Decay Rate6.28E-06
L11 58694U 24001A 24001.68468223 .00000628 00000+0 00000+0 0 9999
L22 58694 5.9870 115.4463 0010488 359.8378 55.4280 14.74838619 62



Live tracking and technical data element details for XPOSAT (NORAD 58694). XPOSAT can be tracked NOW for your location showing map with azimuth and elevation plus other details from your city location.







IsCatalogInMostPopularTable: catalog: 58694, numindb: 26
Update: records affected: 1



GetName: 58694 XPOSAT

Hit Count: updated at: Wed, 17 Apr 2024 03:46:16 GMT